Home   Weather   Lexington-Fayette   Past weeks

Flag for USA Past Weather in Lexington-Fayette, Kentucky, USA — Yesterday and Last 2 Weeks

53 °F

Mostly cloudy.

Feels Like: 49 °F
Forecast: 45 / 54 °F
Wind: 13 mph from Northwest

Location: Blue Grass Airport

Current Time: Oct 21, 2016 at 10:55:23 AM

Latest Report: Oct 21, 2016 at 9:54 AM

Visibility: 10 mi

Pressure: 30.00 "Hg

Humidity: 86%

Dew Point: 49 °F

Location of Lexington-FayetteLocation

Past Weather in Lexington-Fayette — Graph


Lexington-Fayette Temperature Yesterday

Maximum temperature yesterday: 71 °F (at 3:54 PM)
Minimum temperature yesterday: 55 °F (at 11:54 PM)
Average temperature yesterday: 65 °F

High & Low Weather Summary for the Past Weeks

High85 °F (Oct 18, 3:54 PM)97% (Oct 20, 10:54 PM)30.42 "Hg (Oct 20, 10:54 PM)
Low46 °F (Oct 9, 7:54 AM)25% (Oct 8, 5:54 PM)29.85 "Hg (Oct 20, 5:54 PM)
Average66 °F63%30.12 "Hg
* Reported Oct 6 8:54 AM — Oct 21 8:54 AM, Lexington-Fayette, Weather by CustomWeather, © 2016

Note: Actual official high and low records may vary slightly from our data, if they occured in-between our weather recording intervals... More about our weather records


Lexington-Fayette Weather History for the Previous 24 Hours

Scroll right to see more
Time TempWeatherWind HumidityBarometerVisibility
8:54 AM
Fri, Oct 21
53 °FOvercast.14 mph83%29.98 "Hg10 mi
7:54 AM52 °FMostly cloudy.13 mph89%29.96 "Hg10 mi
6:54 AM52 °FLow clouds.12 mph89%29.94 "Hg10 mi
5:54 AM53 °FLight rain. Low clouds.17 mph89%29.92 "Hg7 mi
4:54 AM53 °FMostly cloudy.15 mph89%29.90 "Hg9 mi
3:54 AM53 °FLight rain. Fog.15 mph93%29.88 "Hg6 mi
3:01 AM54 °FLight rain. Fog.13 mph93%29.90 "Hg3 mi
1:54 AM54 °FLow clouds.12 mph93%29.88 "Hg10 mi
12:54 AM54 °FLight rain. Mostly cloudy.13 mph93%29.86 "Hg10 mi
11:54 PM
Thu, Oct 20
55 °FRain. Fog.12 mph93%29.88 "Hg6 mi
10:54 PM56 °FFog.13 mph97%29.88 "Hg6 mi
9:54 PM60 °FLight rain. Fog.12 mph93%29.88 "Hg4 mi
9:02 PM62 °FFog.14 mph96%29.89 "Hg1 mi
8:54 PM63 °FFog.9 mph93%29.86 "Hg1 mi
7:54 PM65 °FPassing clouds.6 mph91%29.86 "Hg10 mi
6:54 PM66 °FLight rain. Passing clouds.9 mph90%29.86 "Hg10 mi
5:54 PM68 °FThundershowers. Fog.7 mph90%29.85 "Hg6 mi
5:04 PM70 °FThundershowers. Fog.6 mph87%29.88 "Hg6 mi
4:54 PM70 °FPartly sunny.6 mph87%29.87 "Hg10 mi
3:54 PM71 °FOvercast.7 mph84%29.87 "Hg10 mi
2:58 PM69 °FMostly cloudy.7 mph90%29.91 "Hg9 mi
1:54 PM68 °FLight rain. Fog.6 mph90%29.92 "Hg5 mi
1:01 PM68 °FFog.6 mph90%29.96 "Hg5 mi
11:56 AM66 °FThundershowers. Mostly cloudy.5 mph90%29.97 "Hg7 mi
10:54 AM69 °FMore clouds than sun.8 mph73%29.95 "Hg10 mi
Weather by CustomWeather, © 2016

See weather overviewHow to use our weather pages